KSF1-C (48942 NORAD) Tracking and Keplerian Element Data

This shows tracking and keplerian element data for the satellite.

Feedback or suggestion? Click here.




ElementValue
Catalog48942
NameKSF1-C
Epoch Orbit1397
Epoch Day269.18345
Epoch Year2021
RAAN36.8923
Inclination97.5268
Eccentricity0.0015955
Argument of Perigee298.7211
Mean Anonmoly182.6851
Mean Motion15.14182045
Decay Rate2.231E-05
L11 48942U 21059BR 21269.18345000 .00002231 00000-0 12559-3 0 9998
L22 48942 97.5268 36.8923 0015955 298.7211 182.6851 15.14182045 13974

Live tracking and technical data element details for KSF1-C (NORAD 48942). KSF1-C can be tracked NOW for your location showing map with azimuth and elevation plus other details from your city location.

Track the satellite on the map from your city or location and see movement details for azimuth, elevation, latitude, longitude, range, height, and movement on the map or in text.







IsCatalogInMostPopularTable: catalog: 48942, numindb: 13
Update: records affected: 1



GetName: 48942 KSF1-C

Hit Count: updated at: Sun, 26 Sep 2021 16:18:01 GMT